Location: B�rgermoos
(47.6500°N, 9.0667°E)
Time: 08:56:42
(UTC+00:00)

Tiros 1 - Visible Passes

Search period start: 31 July 2021 00:00
Search period end: 10 August 2021 00:00
Orbit: 630 x 664 km, 48.4° (Epoch: 30 July)

Date Brightness Start Highest point End Pass type
(mag) Time Alt. Az. Time Alt. Az. Time Alt. Az.
31 Jul 9.6 00:02:55 10° W 00:03:03 11° W 00:03:03 11° W visible
31 Jul 7.1 21:04:05 10° W 21:08:51 85° N 21:12:03 20° E visible
31 Jul 7.9 22:46:23 10° W 22:49:40 38° WSW 22:49:40 38° WSW visible
01 Aug 7.3 19:47:46 10° W 19:52:33 81° N 19:57:17 10° E visible
01 Aug 7.0 21:30:05 10° WNW 21:34:50 77° SSW 21:36:20 43° ESE visible
01 Aug 9.1 23:12:36 10° W 23:13:58 17° W 23:13:58 17° W visible
02 Aug 7.2 20:13:48 10° W 20:18:34 84° N 20:23:03 11° E visible
02 Aug 7.3 21:56:06 10° WNW 22:00:40 51° SSW 22:00:40 51° SSW visible
03 Aug 7.1 20:39:48 10° WNW 20:44:34 80° SSW 20:47:26 24° ESE visible
03 Aug 8.6 22:22:16 10° W 22:25:03 26° WSW 22:25:03 26° WSW visible
04 Aug 7.3 19:23:30 10° W 19:28:19 83° N 19:33:03 10° E visible
04 Aug 7.3 21:05:48 10° WNW 21:10:26 54° SSW 21:11:50 39° SSE visible
04 Aug 9.6 22:49:01 10° W 22:49:28 11° WSW 22:49:28 11° WSW visible
05 Aug 7.2 19:49:30 10° WNW 19:54:18 82° SSW 19:58:40 12° ESE visible
05 Aug 8.1 21:31:57 10° W 21:36:10 32° SW 21:36:18 32° SSW visible
06 Aug 7.4 20:15:31 10° WNW 20:20:12 57° SSW 20:23:09 21° SE visible
06 Aug 9.1 21:58:35 10° W 22:00:47 17° WSW 22:00:47 17° WSW visible
07 Aug 8.1 20:41:38 10° W 20:45:55 34° SSW 20:47:42 25° S visible
08 Aug 7.4 19:25:13 10° WNW 19:29:56 60° SSW 19:34:35 10° SE visible
08 Aug 8.9 21:08:11 10° W 21:11:29 19° SW 21:12:17 18° SSW visible
09 Aug 8.1 19:51:19 10° W 19:55:42 36° SSW 19:59:16 14° SSE visible
